KF0ZH Weather Reports


time (UTC)temp
C
wind
direction
speed
KPH
gust
KPH
rain 1hr
cm
rain 24hr
cm
rain mn
cm
humidity
%
barometer
mb
20260504100603 13 215 6.4 17.7 0.00 0.00 0.00 55 994.5
20260504090104 13 240 4.8 11.3 0.00 0.00 0.00 58 995.3
20260504081602 12 180 0.0 0.0 0.00 0.00 0.00 57 996.4
20260504081107 12 236 0.0 4.8 0.00 0.00 0.00 57 996.6
20260504080602 12 216 0.0 4.8 0.00 0.00 0.00 57 996.6
20260504080134 13 180 0.0 4.8 0.00 0.00 0.00 56 996.7
20260504050602 12 261 0.0 3.2 0.00 0.00 0.00 58 999.8
20260504050104 12 261 0.0 0.0 0.00 0.00 0.00 58 1000.0
20260504045602 12 261 0.0 0.0 0.00 0.00 0.00 57 1000.0
20260504045103 12 261 0.0 0.0 0.00 0.00 0.00 57 1000.0
20260504044608 13 261 0.0 0.0 0.00 0.00 0.00 57 1000.1
20260504044102 13 261 0.0 0.0 0.00 0.00 0.00 57 1000.2
20260504043605 13 261 0.0 0.0 0.00 0.00 0.00 57 1000.3
20260504043102 13 261 0.0 0.0 0.00 0.00 0.00 57 1000.4
20260504042603 13 261 0.0 0.0 0.00 0.00 0.00 57 1000.5
20260504042103 13 261 0.0 0.0 0.00 0.00 0.00 57 1000.6
20260504041602 13 261 0.0 0.0 0.00 0.00 0.00 57 1000.6
20260504040602 13 261 0.0 0.0 0.00 0.00 0.00 56 1000.9
20260504040145 13 261 0.0 0.0 0.00 0.00 0.00 55 1001.0
20260504040103 13 261 0.0 0.0 0.00 0.00 0.00 55 1001.0
20260504035602 13 261 0.0 0.0 0.00 0.00 0.00 55 1001.1
20260504035102 13 261 0.0 0.0 0.00 0.00 0.00 55 1001.3
20260504034602 13 261 0.0 0.0 0.00 0.00 0.00 54 1001.3
20260504034103 13 261 0.0 0.0 0.00 0.00 0.00 54 1001.4
20260504033103 13 261 0.0 0.0 0.00 0.00 0.00 55 1001.5
20260504032604 14 261 0.0 0.0 0.00 0.00 0.00 54 1001.6
20260504032103 14 261 0.0 0.0 0.00 0.00 0.00 54 1001.6
20260504031603 14 261 0.0 0.0 0.00 0.00 0.00 54 1001.7
20260504030602 13 261 0.0 0.0 0.00 0.00 0.00 54 1001.7
20260504025602 14 261 0.0 0.0 0.00 0.00 0.00 54 1001.8
20260504025103 14 261 0.0 0.0 0.00 0.00 0.00 54 1001.8
20260504024103 15 261 0.0 0.0 0.00 0.00 0.00 52 1001.9
20260504023608 15 261 0.0 0.0 0.00 0.00 0.00 50 1001.9
20260504023103 15 261 0.0 0.0 0.00 0.00 0.00 50 1001.9
20260504022603 15 261 0.0 0.0 0.00 0.00 0.00 50 1002.0
20260504021602 16 261 0.0 0.0 0.00 0.00 0.00 48 1002.0
20260504021102 16 261 0.0 0.0 0.00 0.00 0.00 47 1002.0
20260504020602 17 261 0.0 0.0 0.00 0.00 0.00 47 1002.0
20260504015103 17 261 0.0 0.0 0.00 0.00 0.00 44 1002.0
20260504014603 17 261 0.0 0.0 0.00 0.00 0.00 44 1002.0
20260504014103 18 261 0.0 0.0 0.00 0.00 0.00 43 1002.1
20260504013603 18 261 0.0 0.0 0.00 0.00 0.00 42 1002.2
20260504012602 18 261 0.0 0.0 0.00 0.00 0.00 41 1002.3
20260504012103 19 261 0.0 0.0 0.00 0.00 0.00 40 1002.3
20260504011603 19 261 0.0 0.0 0.00 0.00 0.00 39 1002.3
20260504011102 19 261 0.0 0.0 0.00 0.00 0.00 38 1002.4
20260504010604 20 261 0.0 0.0 0.00 0.00 0.00 37 1002.3
20260504005603 20 261 0.0 0.0 0.00 0.00 0.00 37 1002.3
20260504005104 20 261 0.0 0.0 0.00 0.00 0.00 36 1002.4
20260504004603 20 277 0.0 0.0 0.00 0.00 0.00 36 1002.4
20260504003603 20 281 0.0 0.0 0.00 0.00 0.00 35 1002.4
20260504003102 20 281 0.0 0.0 0.00 0.00 0.00 34 1002.4
20260504002103 21 262 0.0 0.0 0.00 0.00 0.00 36 1002.5
20260504001103 21 274 6.4 17.7 0.00 0.00 0.00 34 1002.6
20260504000103 20 275 6.4 9.7 0.00 0.00 0.00 35 1002.7
20260503235602 20 338 0.0 0.0 0.00 0.00 0.00 35 1002.6
20260503235105 21 293 0.0 0.0 0.00 0.00 0.00 35 1002.6
20260503234603 21 277 0.0 4.8 0.00 0.00 0.00 34 1002.6
20260503234103 21 296 0.0 0.0 0.00 0.00 0.00 34 1002.6
20260503233603 21 264 0.0 9.7 0.00 0.00 0.00 33 1002.7
20260503233102 21 298 3.2 8.0 0.00 0.00 0.00 33 1002.6
20260503232102 21 300 0.0 6.4 0.00 0.00 0.00 34 1002.9
20260503231603 21 312 0.0 14.5 0.00 0.00 0.00 34 1003.0
20260503231103 21 264 0.0 6.4 0.00 0.00 0.00 34 1003.0
20260503230603 21 206 0.0 4.8 0.00 0.00 0.00 34 1003.0
20260503225604 21 258 0.0 14.5 0.00 0.00 0.00 33 1003.1
20260503225103 21 336 0.0 0.0 0.00 0.00 0.00 34 1003.1
20260503224104 21 274 0.0 0.0 0.00 0.00 0.00 32 1003.2
20260503223103 21 292 0.0 11.3 0.00 0.00 0.00 33 1003.3
20260503222602 21 317 0.0 11.3 0.00 0.00 0.00 34 1003.3
20260503222102 21 281 11.3 16.1 0.00 0.00 0.00 34 1003.2
20260503221603 21 306 0.0 11.3 0.00 0.00 0.00 34 1003.3
20260503220604 21 271 9.7 14.5 0.00 0.00 0.00 34 1003.5
20260503215602 21 327 11.3 14.5 0.00 0.00 0.00 35 1003.4
20260503215102 21 244 12.9 19.3 0.00 0.00 0.00 36 1003.4
20260503214103 21 334 14.5 20.9 0.00 0.00 0.00 35 1003.5
20260503213603 21 223 8.0 22.5 0.00 0.00 0.00 35 1003.5
20260503213102 21 272 0.0 6.4 0.00 0.00 0.00 38 1003.6
20260503212602 21 295 0.0 16.1 0.00 0.00 0.00 37 1003.6
20260503211602 21 326 0.0 0.0 0.00 0.00 0.00 37 1003.6
20260503211103 21 329 0.0 12.9 0.00 0.00 0.00 36 1003.7
20260503210603 20 295 11.3 12.9 0.00 0.00 0.00 38 1003.7
20260503205103 20 313 14.5 22.5 0.00 0.00 0.00 39 1003.7
20260503204603 20 333 14.5 22.5 0.00 0.00 0.00 37 1003.9
20260503204102 20 300 12.9 14.5 0.00 0.00 0.00 39 1003.9
20260503202102 20 344 0.0 12.9 0.00 0.00 0.00 39 1004.2
20260503201602 20 326 12.9 17.7 0.00 0.00 0.00 40 1004.2
20260503201102 20 1 11.3 22.5 0.00 0.00 0.00 39 1004.4
20260503195602 20 337 6.4 16.1 0.00 0.00 0.00 39 1004.6
20260503195102 20 288 14.5 16.1 0.00 0.00 0.00 39 1004.7
20260503194602 20 340 4.8 27.4 0.00 0.00 0.00 39 1004.7
20260503193609 20 327 8.0 12.9 0.00 0.00 0.00 40 1004.7
20260503193102 20 341 6.4 29.0 0.00 0.00 0.00 39 1004.8
20260503192603 20 315 8.0 17.7 0.00 0.00 0.00 39 1004.8
20260503192102 20 272 9.7 14.5 0.00 0.00 0.00 40 1004.8
20260503191102 20 270 8.0 22.5 0.00 0.00 0.00 37 1004.8
20260503190602 20 333 14.5 14.5 0.00 0.00 0.00 39 1004.7
20260503185602 20 345 0.0 14.5 0.00 0.00 0.00 40 1004.8
20260503184602 20 300 8.0 29.0 0.00 0.00 0.00 41 1004.9
20260503184102 20 300 14.5 19.3 0.00 0.00 0.00 43 1004.9
20260503183603 20 316 17.7 17.7 0.00 0.00 0.00 43 1004.9
20260503183102 19 357 11.3 14.5 0.00 0.00 0.00 44 1005.0
20260503182103 19 315 12.9 19.3 0.00 0.00 0.00 44 1005.0
20260503181706 19 312 9.7 9.7 0.00 0.00 0.00 47 1005.1
20260503181602 19 312 9.7 9.7 0.00 0.00 0.00 47 1005.1
20260503181102 18 1 11.3 29.0 0.00 0.00 0.00 44 1005.2
20260503180603 18 336 27.4 30.6 0.00 0.00 0.00 43 1005.2
20260503175103 18 327 11.3 19.3 0.00 0.00 0.00 45 1005.2
20260503174602 18 270 4.8 22.5 0.00 0.00 0.00 47 1005.2
20260503174102 18 291 14.5 20.9 0.00 0.00 0.00 46 1005.3
20260503173105 18 298 6.4 16.1 0.00 0.00 0.00 46 1005.3
20260503172602 18 322 8.0 19.3 0.00 0.00 0.00 48 1005.3
20260503172102 18 292 0.0 11.3 0.00 0.00 0.00 48 1005.4
20260503171603 18 299 6.4 17.7 0.00 0.00 0.00 49 1005.4
20260503170602 18 285 29.0 29.0 0.00 0.00 0.00 48 1005.4
20260503131103 12 340 8.0 14.5 0.00 0.25 0.00 64 1004.7
20260503130603 12 347 0.0 4.8 0.00 0.25 0.00 64 1004.6
20260503120202 11 246 0.0 0.0 0.00 0.25 0.00 67 1003.6
20260503110602 11 167 0.0 0.0 0.00 0.25 0.00 64 1002.9